(307543) = 2003 EO4

Discovered at Socorro on 2003-03-06 by LINEAR.

Orbit

Orbit type: Mars-crosser

Note: WebGL enabled browser required.

epoch2024-03-31.0
epoch JD2460400.5
perihelion date2023-11-21.03627
perihelion JD2460269.53627
argument of perihelion (°)96.35976
ascending node (°)17.73027
inclination (°)27.50626
eccentricity0.4023760
perihelion distance (AU)1.5624307
Tisserand w.r.t. Jupiter3.1
ΔV w.r.t. Earth (km/sec)11.2
semimajor axis (AU)2.6144042
mean anomaly (°)30.53486
mean daily motion (°/day)0.23315510
aphelion distance (AU)3.666
period (years)4.23
P-vector [x]-0.37395875
P-vector [y]0.55681551
P-vector [z]0.74169491
Q-vector [x]-0.91671849
Q-vector [y]-0.34319760
Q-vector [z]-0.20455466
absolute magnitude16.02
phase slope0.15
uncertainty0
referenceE2024-H18
observations used751
oppositions10
arc length (days)11144
first opposition used1993
last opposition used2024
residual rms (arc-secs)0.70
perturbers coarse indicatorM-v
perturbers precise indicator003Ek
first observation date used1993-10-12.0
last observation date used2024-04-16.0
computer nameMPCLINUX
JD of orbit computation2456966.931509
perihelion JD uncertainty (days)6.9918E-05
argument of perihelion uncertainty (°)1.8217E-05
ascending node uncertainty (°)9.4816E-06
inclination uncertainty (°)1.2051E-05
eccentricity uncertainty 7.7378E-08
perihelion distance uncertainty (AU)2.2070E-07
Minimum Orbit Intersection Distances (in AU)
for orbit epoch: 2460400.5, reference: E2024-H18
Mercury1.26334
Venus0.95579
Earth0.79746
Mars0.31107
Jupiter2.19047
Saturn6.73354
Uranus16.2144
Neptune26.9315

Observations

717 total observations over interval: 1993 10 12.15868 – 2024 03 21.401070
These data are available for download (format description).

Date (UT) J2000 RA J2000 Dec Magn Location Ref
1993 10 12.15868 01 13 59.60 +08 59 39.5 18.7   809 – European Southern Observatory, La Silla MPS 186497
1993 10 12.17951 01 13 57.53 +08 59 47.1   809 – European Southern Observatory, La Silla MPS 186497
1993 10 12.20035 01 13 55.46 +08 59 54.1   809 – European Southern Observatory, La Silla MPS 186497
2003 01 29.49808 14 08 20.98 +03 36 55.3 20.3 R 683 – Goodricke-Pigott Observatory, Tucson MPS 78309
2003 01 29.50750 14 08 21.33 +03 36 45.7 20.6 R 683 – Goodricke-Pigott Observatory, Tucson MPS 78309
2003 01 29.52093 14 08 21.76 +03 36 35.3 21.0 R 683 – Goodricke-Pigott Observatory, Tucson MPS 78309
2003 02 06.38717 14 11 42.71 +02 01 24.5 18.9   704 – Lincoln Laboratory ETS, New Mexico MPS 78309
2003 02 06.40359 14 11 42.91 +02 01 11.7 19.1   704 – Lincoln Laboratory ETS, New Mexico MPS 78309
2003 02 06.42313 14 11 43.22 +02 00 59.1 19.4   704 – Lincoln Laboratory ETS, New Mexico MPS 78309
2003 02 06.43774 14 11 43.26 +02 00 47.7 19.3   704 – Lincoln Laboratory ETS, New Mexico MPS 78309
2003 03 06.38012 14 02 24.19 -03 15 37.1 19.2   704 – Lincoln Laboratory ETS, New Mexico MPS 74423
2003 03 06.39341 14 02 23.45 -03 15 46.4 18.9   704 – Lincoln Laboratory ETS, New Mexico MPS 74423
2003 03 06.40665 14 02 22.61 -03 15 55.8 18.9   704 – Lincoln Laboratory ETS, New Mexico MPS 74423
2003 03 06.41974 14 02 21.83 -03 16 03.6 19.2   704 – Lincoln Laboratory ETS, New Mexico MPS 74423
2003 03 06.43293 14 02 21.06 -03 16 11.7 19.2   704 – Lincoln Laboratory ETS, New Mexico MPS 74423
2003 03 07.14722 14 01 38.55 -03 23 58.2 18.2   615 – St. Veran MPS 74423
2003 03 07.15121 14 01 38.32 -03 24 01.0 18.3   615 – St. Veran MPS 74423
2003 03 07.15490 14 01 38.08 -03 24 03.2 18.3   615 – St. Veran MPS 74423
2003 03 07.15859 14 01 37.85 -03 24 05.7 18.2   615 – St. Veran MPS 74423
2003 03 07.33816 14 01 27.26 -03 26 01.5 18.4 R 734 – Farpoint Observatory, Eskridge MPS 74423
2003 03 07.34240 14 01 26.98 -03 26 04.2 18.0 R 734 – Farpoint Observatory, Eskridge MPS 74423
2003 03 07.39041 14 01 24.04 -03 26 34.8 19.0   704 – Lincoln Laboratory ETS, New Mexico MPS 74423
2003 03 07.39589 14 01 23.57 -03 26 37.7 18.4 R 446 – Kingsnake Observatory, Seguin MPS 74423
2003 03 07.40379 14 01 23.16 -03 26 42.8 18.7   704 – Lincoln Laboratory ETS, New Mexico MPS 74423
2003 03 07.40678 14 01 22.88 -03 26 45.0 18.4 R 446 – Kingsnake Observatory, Seguin MPS 74423
2003 03 07.41702 14 01 22.21 -03 26 51.8 18.6 R 446 – Kingsnake Observatory, Seguin MPS 74423
2003 03 07.41741 14 01 22.32 -03 26 52.1 18.8   704 – Lincoln Laboratory ETS, New Mexico MPS 74423
2003 03 07.42060 14 01 22.07 -03 26 54.9 20.1 R 333 – Desert Eagle Observatory MPS 74423
2003 03 07.42353 14 01 21.90 -03 26 57.4 20.2 R 333 – Desert Eagle Observatory MPS 74423
2003 03 07.42646 14 01 21.74 -03 26 58.1 21.0 R 333 – Desert Eagle Observatory MPS 74423
2003 03 07.42762 14 01 21.56 -03 26 58.7 18.4 R 446 – Kingsnake Observatory, Seguin MPS 74423
2003 03 07.42933 14 01 21.57 -03 27 01.0 20.5 R 333 – Desert Eagle Observatory MPS 74423
2003 03 07.43067 14 01 21.47 -03 27 00.3 18.9   704 – Lincoln Laboratory ETS, New Mexico MPS 74423
2003 03 07.43251 14 01 21.28 -03 27 01.9 18.4 R 711 – McDonald Observatory, Fort Davis MPS 74423
2003 03 07.43878 14 01 20.88 -03 27 05.7 18.2 R 711 – McDonald Observatory, Fort Davis MPS 74423
2003 03 07.44503 14 01 20.46 -03 27 10.0 18.3 R 711 – McDonald Observatory, Fort Davis MPS 74423
2003 03 07.48204 14 01 18.15 -03 27 34.5 18.3 R 926 – Tenagra II Observatory, Nogales MPS 74423
2003 03 07.48763 14 01 17.80 -03 27 37.5 18.4 R 926 – Tenagra II Observatory, Nogales MPS 74423
2003 03 07.49330 14 01 17.43 -03 27 41.4 18.3 R 926 – Tenagra II Observatory, Nogales MPS 74423
2003 03 07.53692 14 01 15.19 -03 27 59.9 17.5 R 474 – Mount John Observatory, Lake Tekapo MPS 74423
2003 03 07.53847 14 01 15.09 -03 28 00.9 17.7 R 474 – Mount John Observatory, Lake Tekapo MPS 74423
2003 03 07.54330 14 01 14.75 -03 28 04.0 17.5 R 474 – Mount John Observatory, Lake Tekapo MPS 74423
2003 03 07.54770 14 01 14.49 -03 28 06.6 17.9 R 474 – Mount John Observatory, Lake Tekapo MPS 74423
2003 03 07.66398 14 01 07.14 -03 29 25.1 19.2 V 428 – Reedy Creek MPS 74423
2003 03 07.67006 14 01 06.89 -03 29 28.6 18.9 V 428 – Reedy Creek MPS 74423
2003 03 07.67604 14 01 06.48 -03 29 31.6 19.1 V 428 – Reedy Creek MPS 74423
2003 03 08.14355 14 00 37.20 -03 34 44.5 18.2 R J95 – Great Shefford MPS 74423
2003 03 08.14876 14 00 36.85 -03 34 48.0 18.5 R J95 – Great Shefford MPS 74423
2003 03 08.33656 14 00 25.14 -03 36 48.7 18.8 R 734 – Farpoint Observatory, Eskridge MPS 74423
2003 03 08.34276 14 00 24.78 -03 36 51.8 18.6 R 734 – Farpoint Observatory, Eskridge MPS 74423
2003 03 08.34618 14 00 24.48 -03 36 53.6 18.3 R 850 – Cordell-Lorenz Observatory, Sewanee MPS 74423
2003 03 08.36142 14 00 23.39 -03 37 04.2 18.7 R 850 – Cordell-Lorenz Observatory, Sewanee MPS 74423
2003 03 08.36397 14 00 23.48 -03 37 05.1 18.8   704 – Lincoln Laboratory ETS, New Mexico MPS 74423
2003 03 08.37684 14 00 22.60 -03 37 12.5 19.1   704 – Lincoln Laboratory ETS, New Mexico MPS 74423
2003 03 08.38307 14 00 22.14 -03 37 18.2 19.5   704 – Lincoln Laboratory ETS, New Mexico MPS 74423
2003 03 08.38537 14 00 21.90 -03 37 20.2 18.4 R 734 – Farpoint Observatory, Eskridge MPS 74423
2003 03 08.38785 14 00 21.75 -03 37 20.9 18.9 R 850 – Cordell-Lorenz Observatory, Sewanee MPS 74423
2003 03 08.38981 14 00 21.75 -03 37 21.0 18.7   704 – Lincoln Laboratory ETS, New Mexico MPS 74423
2003 03 08.39617 14 00 21.32 -03 37 26.7 18.8   704 – Lincoln Laboratory ETS, New Mexico MPS 74423
2003 03 08.40293 14 00 20.85 -03 37 30.9 18.8   704 – Lincoln Laboratory ETS, New Mexico MPS 74423
2003 03 08.40927 14 00 20.42 -03 37 34.9 18.7   704 – Lincoln Laboratory ETS, New Mexico MPS 74423
2003 03 08.41595 14 00 20.01 -03 37 38.7 19.1   704 – Lincoln Laboratory ETS, New Mexico MPS 74423
2003 03 08.43211 14 00 18.95 -03 37 49.3 18.4 R 926 – Tenagra II Observatory, Nogales MPS 74423
2003 03 08.43767 14 00 18.60 -03 37 53.1 18.5 R 926 – Tenagra II Observatory, Nogales MPS 74423
2003 03 08.44289 14 00 18.24 -03 37 55.2 18.3 R 926 – Tenagra II Observatory, Nogales MPS 74423
2003 03 10.38105 13 58 09.96 -03 58 45.3 18.5   704 – Lincoln Laboratory ETS, New Mexico MPS 74423
2003 03 10.39407 13 58 08.98 -03 58 53.3 18.8   704 – Lincoln Laboratory ETS, New Mexico MPS 74423
2003 03 10.40718 13 58 08.09 -03 59 01.9 19.3   704 – Lincoln Laboratory ETS, New Mexico MPS 74423
2003 03 10.42030 13 58 07.10 -03 59 09.9 18.8   704 – Lincoln Laboratory ETS, New Mexico MPS 74423
2003 03 10.43334 13 58 06.20 -03 59 18.6 18.9   704 – Lincoln Laboratory ETS, New Mexico MPS 74423
2003 03 12.37035 13 55 48.29 -04 19 57.0 18.4   704 – Lincoln Laboratory ETS, New Mexico MPS 74423
2003 03 12.38395 13 55 47.22 -04 20 05.5 18.6   704 – Lincoln Laboratory ETS, New Mexico MPS 74423
2003 03 12.39722 13 55 46.22 -04 20 14.2 18.8   704 – Lincoln Laboratory ETS, New Mexico MPS 74423
2003 03 12.41095 13 55 45.14 -04 20 23.0 18.4   704 – Lincoln Laboratory ETS, New Mexico MPS 74423
2003 03 12.42409 13 55 44.14 -04 20 31.2 19.1   704 – Lincoln Laboratory ETS, New Mexico MPS 74423
2003 03 13.53850 13 54 20.48 -04 32 18.4 19.4   608 – Haleakala-AMOS MPS 74423
2003 03 13.54928 13 54 19.62 -04 32 24.8 19.5   608 – Haleakala-AMOS MPS 74423
2003 03 13.56030 13 54 18.75 -04 32 32.4 19.2   608 – Haleakala-AMOS MPS 74423
2003 03 17.45941 13 49 03.72 -05 13 20.6 19.1   608 – Haleakala-AMOS MPS 76206
2003 03 17.46996 13 49 02.77 -05 13 27.3 19.2   608 – Haleakala-AMOS MPS 76206
2003 03 17.48056 13 49 01.84 -05 13 33.8 19.2   608 – Haleakala-AMOS MPS 76206
2003 03 26.33058 13 35 19.50 -06 42 30.0 18.2 R 699 – Lowell Observatory-LONEOS MPS 76206
2003 03 26.34832 13 35 17.69 -06 42 40.7   699 – Lowell Observatory-LONEOS MPS 76206
2003 03 26.36608 13 35 15.81 -06 42 50.4   699 – Lowell Observatory-LONEOS MPS 76206
2003 03 26.38377 13 35 14.04 -06 43 01.4   699 – Lowell Observatory-LONEOS MPS 76206
2003 03 27.35320 13 33 37.24 -06 52 20.9 18.1   644 – Palomar Mountain/NEAT MPS 76206
2003 03 27.38250 13 33 34.19 -06 52 37.7 18.1   644 – Palomar Mountain/NEAT MPS 76206
2003 03 27.40355 13 33 32.04 -06 52 49.7 18.1   644 – Palomar Mountain/NEAT MPS 76206
